Home > Time Zones > World Clock > Weather > U.S.A. > Nome > Past weeks

Flag for U.S.A. Weather past 2 weeks in Nome, Alaska, U.S.A.

Now
55 °F

Partly sunny.


Feels Like: 52 °F
Forecast: 47 / 57 °F
Wind: 12 mph from Southwest

Location: Nome Airport

Current Time: Aug 21, 2014 at 2:11:09 PM

Latest Report: Aug 21, 2014 at 12:53 PM


Visibility: 10 mi

Pressure: 30.25 "Hg

Humidity: 77%

Dew point: 48 °F

Location of NomeLocation

Historic Weather in Nome — Graph

°F

Nome temperature yesterday

Maximum temperature yesterday: 57 °F (at 4:53 PM)
Minimum temperature yesterday: 49 °F (at 11:53 PM)
Average temperature yesterday: 53 °F

Past Weeks' High & Low Weather Summary

 TemperatureHumidityPressure
High75 °F (Aug 11, 12:53 PM)100% (Aug 15, 3:53 AM)30.25 "Hg (Aug 15, 3:53 AM)
Low45 °F (Aug 21, 2:53 AM)40% (Aug 11, 12:53 PM)29.43 "Hg (Aug 16, 7:53 PM)
Average60 °F78%29.66 "Hg
* Reported Aug 6 12:53 PM — Aug 21 12:53 PM, Nome, Weather by CustomWeather, © 2014

Note: Actual official high and low records may vary slightly from our data, if they occured in-between our weather recording intervals... More about our weather records

Advertising

Nome weather history for previous 24 hours

 ConditionsComfort  
Time TempWeatherWind HumidityBarometerVisibility
12:53 PM
Aug 21
55 °FPartly sunny.12 mph77%30.25 "Hg10 mi
11:53 AM55 °FPartly sunny.9 mph77%30.24 "Hg10 mi
10:53 AM53 °FPartly sunny.No wind83%30.24 "Hg10 mi
9:53 AM50 °FPartly sunny.No wind93%30.24 "Hg10 mi
8:53 AM47 °FPartly sunny.3 mph97%30.24 "Hg10 mi
7:53 AM48 °FMostly cloudy.No wind93%30.23 "Hg10 mi
6:53 AM47 °FMostly cloudy.3 mph97%30.23 "Hg10 mi
5:53 AM47 °FPartly cloudy.No wind93%30.23 "Hg10 mi
4:53 AM45 °FPassing clouds.No wind97%30.22 "Hg10 mi
3:53 AM46 °FOvercast.No wind93%30.22 "Hg10 mi
2:53 AM45 °FPassing clouds.No wind93%30.21 "Hg10 mi
1:53 AM47 °FPassing clouds.3 mph93%30.20 "Hg10 mi
12:53 AM48 °FPassing clouds.No wind89%30.19 "Hg10 mi
11:53 PM
Aug 20
49 °FBroken clouds.5 mph93%30.18 "Hg10 mi
10:53 PM52 °FBroken clouds.5 mph86%30.17 "Hg10 mi
9:53 PM54 °FBroken clouds.7 mph80%30.17 "Hg10 mi
8:53 PM55 °FScattered clouds.13 mph77%30.18 "Hg10 mi
7:53 PM56 °FBroken clouds.16 mph77%30.17 "Hg10 mi
6:53 PM57 °FBroken clouds.16 mph78%30.17 "Hg10 mi
5:53 PM56 °FScattered clouds.15 mph81%30.16 "Hg10 mi
4:53 PM57 °FOvercast.15 mph81%30.16 "Hg10 mi
3:53 PM56 °FBroken clouds.14 mph81%30.17 "Hg10 mi
2:53 PM54 °FLight rain. Broken clouds.12 mph90%30.16 "Hg7 mi
Weather by CustomWeather, © 2014

See weather overviewHow to use our weather pages